TimeMDT,TemperatureF,Dew PointF,Humidity,Sea Level PressureIn,VisibilityMPH,Wind Direction,Wind SpeedMPH,Gust SpeedMPH,PrecipitationIn,Events,Conditions,WindDirDegrees,DateUTC
12:15 AM,51.8,26.6,38,29.98,10.0,South,9.2,-,N/A,,Clear,180,2013-10-09 06:15:00
12:35 AM,51.8,28.4,41,29.97,10.0,SSW,6.9,-,N/A,,Clear,200,2013-10-09 06:35:00
12:55 AM,51.8,26.6,38,29.98,10.0,WSW,4.6,-,N/A,,Clear,240,2013-10-09 06:55:00
1:15 AM,53.6,28.4,38,29.98,10.0,SW,3.5,-,N/A,,Clear,230,2013-10-09 07:15:00
1:35 AM,53.6,28.4,38,29.98,10.0,SSW,5.8,-,N/A,,Clear,200,2013-10-09 07:35:00
1:55 AM,48.2,28.4,46,29.98,10.0,Calm,Calm,-,N/A,,Clear,0,2013-10-09 07:55:00
2:15 AM,51.8,28.4,41,29.98,10.0,South,4.6,-,N/A,,Clear,190,2013-10-09 08:15:00
2:35 AM,51.8,28.4,41,29.98,10.0,South,6.9,-,N/A,,Clear,180,2013-10-09 08:35:00
2:55 AM,48.2,30.2,50,29.97,10.0,SSW,8.1,-,N/A,,Clear,200,2013-10-09 08:55:00
3:15 AM,48.2,30.2,50,29.96,10.0,South,5.8,-,N/A,,Clear,170,2013-10-09 09:15:00
3:35 AM,50.0,30.2,47,29.97,10.0,SSW,3.5,-,N/A,,Clear,210,2013-10-09 09:35:00
3:55 AM,50.0,30.2,47,29.97,10.0,Calm,Calm,-,N/A,,Clear,0,2013-10-09 09:55:00
4:15 AM,46.4,30.2,53,29.97,10.0,SW,5.8,-,N/A,,Clear,230,2013-10-09 10:15:00
4:35 AM,46.4,30.2,53,29.98,10.0,Calm,Calm,-,N/A,,Clear,0,2013-10-09 10:35:00
4:55 AM,46.4,30.2,53,29.98,10.0,Calm,Calm,-,N/A,,Clear,0,2013-10-09 10:55:00
5:15 AM,46.4,30.2,53,29.98,10.0,Calm,Calm,-,N/A,,Clear,0,2013-10-09 11:15:00
5:35 AM,44.6,28.4,53,29.98,10.0,Calm,Calm,-,N/A,,Clear,0,2013-10-09 11:35:00
5:55 AM,44.6,30.2,57,29.98,10.0,Calm,Calm,-,N/A,,Clear,0,2013-10-09 11:55:00
6:15 AM,44.6,30.2,57,29.98,10.0,Calm,Calm,-,N/A,,Clear,0,2013-10-09 12:15:00
6:35 AM,44.6,30.2,57,29.99,10.0,SE,3.5,-,N/A,,Clear,130,2013-10-09 12:35:00
6:55 AM,44.6,30.2,57,29.99,10.0,SSE,3.5,-,N/A,,Clear,150,2013-10-09 12:55:00
7:15 AM,44.6,30.2,57,29.99,10.0,South,4.6,-,N/A,,Clear,170,2013-10-09 13:15:00
7:35 AM,48.2,32.0,54,30.00,10.0,Calm,Calm,-,N/A,,Clear,0,2013-10-09 13:35:00
7:55 AM,51.8,33.8,50,30.00,10.0,South,4.6,-,N/A,,Clear,180,2013-10-09 13:55:00
8:15 AM,53.6,35.6,51,30.01,10.0,South,5.8,-,N/A,,Clear,180,2013-10-09 14:15:00
8:35 AM,55.4,35.6,47,30.01,10.0,South,4.6,-,N/A,,Clear,180,2013-10-09 14:35:00
8:55 AM,59.0,35.6,42,30.02,10.0,South,6.9,-,N/A,,Clear,190,2013-10-09 14:55:00
9:15 AM,60.8,37.4,42,30.02,10.0,South,8.1,-,N/A,,Clear,180,2013-10-09 15:15:00
9:35 AM,64.4,37.4,37,30.02,10.0,South,8.1,-,N/A,,Clear,190,2013-10-09 15:35:00
9:55 AM,66.2,37.4,35,30.03,10.0,SSW,10.4,-,N/A,,Clear,210,2013-10-09 15:55:00
10:15 AM,68.0,39.2,35,30.02,10.0,SSW,9.2,-,N/A,,Clear,200,2013-10-09 16:15:00
10:35 AM,71.6,39.2,31,30.02,10.0,SSW,8.1,-,N/A,,Clear,200,2013-10-09 16:35:00
10:55 AM,69.8,39.2,33,30.02,10.0,SSW,11.5,-,N/A,,Clear,210,2013-10-09 16:55:00
11:15 AM,73.4,41.0,31,30.02,10.0,SW,10.4,-,N/A,,Clear,220,2013-10-09 17:15:00
11:35 AM,73.4,39.2,29,30.01,10.0,SSW,8.1,-,N/A,,Clear,200,2013-10-09 17:35:00
11:55 AM,75.2,42.8,31,30.01,10.0,SSW,11.5,17.3,N/A,,Clear,210,2013-10-09 17:55:00
12:15 PM,75.2,41.0,29,30.00,10.0,SW,11.5,-,N/A,,Clear,220,2013-10-09 18:15:00
12:35 PM,78.8,41.0,26,29.99,10.0,SW,12.7,18.4,N/A,,Clear,220,2013-10-09 18:35:00
12:55 PM,78.8,41.0,26,29.98,10.0,SSW,15.0,27.6,N/A,,Clear,200,2013-10-09 18:55:00
1:15 PM,80.6,42.8,26,29.97,10.0,SSW,10.4,20.7,N/A,,Clear,200,2013-10-09 19:15:00
1:35 PM,80.6,39.2,23,29.96,10.0,SSW,16.1,19.6,N/A,,Clear,210,2013-10-09 19:35:00
1:55 PM,82.4,39.2,21,29.95,10.0,SSW,17.3,23.0,N/A,,Clear,200,2013-10-09 19:55:00
2:15 PM,82.4,37.4,20,29.95,10.0,SW,19.6,26.5,N/A,,Clear,220,2013-10-09 20:15:00
2:35 PM,82.4,37.4,20,29.94,10.0,SSW,21.9,31.1,N/A,,Clear,200,2013-10-09 20:35:00
2:55 PM,82.4,35.6,19,29.94,10.0,SW,21.9,27.6,N/A,,Clear,220,2013-10-09 20:55:00
3:15 PM,82.4,33.8,17,29.94,10.0,SW,21.9,28.8,N/A,,Clear,220,2013-10-09 21:15:00
3:35 PM,82.4,30.2,15,29.94,10.0,SW,19.6,27.6,N/A,,Clear,220,2013-10-09 21:35:00
3:55 PM,82.4,28.4,14,29.94,10.0,SW,19.6,27.6,N/A,,Clear,230,2013-10-09 21:55:00
4:15 PM,80.6,30.2,16,29.95,10.0,WSW,21.9,25.3,N/A,,Clear,240,2013-10-09 22:15:00
4:35 PM,80.6,30.2,16,29.95,10.0,SW,17.3,-,N/A,,Clear,230,2013-10-09 22:35:00
4:55 PM,80.6,28.4,15,29.95,10.0,WSW,15.0,-,N/A,,Clear,250,2013-10-09 22:55:00
5:15 PM,78.8,28.4,16,29.95,10.0,SW,13.8,23.0,N/A,,Clear,220,2013-10-09 23:15:00
5:35 PM,78.8,30.2,17,29.95,10.0,SW,11.5,-,N/A,,Clear,230,2013-10-09 23:35:00
5:55 PM,75.2,33.8,22,29.95,10.0,SSW,12.7,-,N/A,,Clear,210,2013-10-09 23:55:00
6:15 PM,73.4,33.8,23,29.96,10.0,SW,6.9,-,N/A,,Clear,220,2013-10-10 00:15:00
6:35 PM,69.8,33.8,27,29.96,10.0,SW,9.2,-,N/A,,Clear,220,2013-10-10 00:35:00
6:55 PM,64.4,33.8,32,29.96,10.0,SSW,8.1,-,N/A,,Clear,210,2013-10-10 00:55:00
7:15 PM,62.6,32.0,32,29.97,10.0,SSW,5.8,-,N/A,,Clear,200,2013-10-10 01:15:00
7:35 PM,64.4,33.8,32,29.98,10.0,South,4.6,-,N/A,,Clear,190,2013-10-10 01:35:00
7:55 PM,64.4,33.8,32,29.98,10.0,South,5.8,-,N/A,,Clear,180,2013-10-10 01:55:00
8:15 PM,62.6,32.0,32,29.98,10.0,South,8.1,-,N/A,,Clear,170,2013-10-10 02:15:00
8:35 PM,60.8,30.2,31,29.99,10.0,South,8.1,-,N/A,,Clear,170,2013-10-10 02:35:00
8:55 PM,60.8,30.2,31,29.99,10.0,South,6.9,-,N/A,,Clear,180,2013-10-10 02:55:00
9:15 PM,60.8,30.2,31,29.99,10.0,SSW,4.6,-,N/A,,Clear,200,2013-10-10 03:15:00
9:35 PM,60.8,32.0,34,29.99,10.0,South,5.8,-,N/A,,Clear,180,2013-10-10 03:35:00
9:55 PM,57.2,30.2,36,30.00,10.0,SSW,3.5,-,N/A,,Clear,200,2013-10-10 03:55:00
10:15 PM,60.8,30.2,31,30.00,10.0,SSW,4.6,-,N/A,,Clear,200,2013-10-10 04:15:00
10:35 PM,57.2,30.2,36,30.00,10.0,South,4.6,-,N/A,,Clear,170,2013-10-10 04:35:00
10:55 PM,55.4,30.2,38,30.00,10.0,South,6.9,-,N/A,,Clear,170,2013-10-10 04:55:00
11:15 PM,55.4,30.2,38,30.00,10.0,SSE,9.2,-,N/A,,Clear,160,2013-10-10 05:15:00
11:35 PM,55.4,33.8,44,30.00,10.0,South,8.1,-,N/A,,Clear,170,2013-10-10 05:35:00
11:55 PM,55.4,33.8,44,30.01,10.0,South,6.9,-,N/A,,Clear,180,2013-10-10 05:55:00